Regional Weather Roundup
Issued by NWS

Home | Current Version | Previous Version | Graphics & Text | Print | Product List | Glossary On
Versions: 1 2 3 4 5 6 7 8 9 10 11 12 13 14 15 16 17 18 19 20 21 22 23 24 25 26 27 28 29 30 31 32 33 34 35 36 37 38 39 40 41 42 43 44 45 46 47 48 49 50
000
ASUS43 KBIS 300610
RWRND

NORTH DAKOTA REGIONAL WEATHER ROUNDUP
NATIONAL WEATHER SERVICE BISMARCK ND
100 AM CDT SAT AUG 30 2014

NOTE: "FAIR" INDICATES FEW OR NO CLOUDS BELOW 12,000 FEET WITH NO
SIGNIFICANT WEATHER AND/OR OBSTRUCTIONS TO VISIBILITY.


NDZ001>003-009>011-017-300700-
NORTHWEST NORTH DAKOTA

CITY           SKY/WX    TMP DP  RH WIND       PRES   REMARKS
WILLISTON      CLEAR     52  48  86 CALM      29.96S
6HR MIN TEMP:  50; 6HR MAX TEMP:  74;

MINOT          FAIR      51  47  86 CALM      29.96S
MINOT AFB      FAIR      49  48  98 SW5       29.96S
$$

NDZ018>021-031>035-040>046-300700-
SOUTHWEST NORTH DAKOTA

CITY           SKY/WX    TMP DP  RH WIND       PRES   REMARKS
BISMARCK       CLEAR     53  51  93 CALM      29.99S
6HR MIN TEMP:  53; 6HR MAX TEMP:  69;

DICKINSON      CLEAR     52  49  89 SE8       29.98S
GARRISON         N/A     52  50  93 CALM      29.98S
6HR MIN TEMP:  50; 6HR MAX TEMP:  67;

HETTINGER ARPT CLEAR     54  51  90 E6        30.01S
$$

NDZ004>008-012>016-024-026-027-054-300700-
NORTHEAST NORTH DAKOTA

CITY           SKY/WX    TMP DP  RH WIND       PRES   REMARKS
GRAND FORKS    FAIR      56  52  86 N9        29.91S
GRND FRKS AFB  FAIR      56  55  99 N7        29.93S
DEVILS LAKE    FAIR      52  45  76 NE6       29.95F
$$

NDZ022-023-025-028>030-036>039-047>053-300700-
SOUTHEAST NORTH DAKOTA

CITY           SKY/WX    TMP DP  RH WIND       PRES   REMARKS
FARGO          CLOUDY    62  57  83 N16G24    29.87S
6HR MIN TEMP:  62; 6HR MAX TEMP:  67;

JAMESTOWN      CLOUDY    60  55  83 N9        29.95R
$$



USA.gov is the U.S. government's official web portal to all federal, state and local government web resources and services.